Time,TemperatureF,DewpointF,PressureIn,WindDirection,WindDirectionDegrees,WindSpeedMPH,WindSpeedGustMPH,Humidity,HourlyPrecipIn,Conditions,Clouds,dailyrainin,SolarRadiationWatts/m^2,SoftwareType,DateUTC
2013-03-04 00:00:00,18.2,16.8,29.62,WNW,294,2.3,0.0,94,0.00,OVC,FEW,0.01,0.0,WeatherDisplay:10.37,2013-03-04 05:00:00,
2013-03-04 00:03:00,18.2,16.8,29.62,WNW,303,0.0,0.0,94,0.00,RA,FEW,0.00,0.0,WeatherDisplay:10.37,2013-03-04 05:03:00,
2013-03-04 00:04:00,18.2,16.8,29.62,WNW,298,3.0,3.0,94,0.00,RA,FEW,0.00,0.0,WeatherDisplay:10.37,2013-03-04 05:04:00,
2013-03-04 00:09:00,18.3,16.9,29.62,WSW,253,1.2,0.0,94,0.00,RA,FEW,0.00,0.0,WeatherDisplay:10.37,2013-03-04 05:09:00,
2013-03-04 00:14:00,18.3,16.9,29.62,West,281,1.2,1.2,94,0.00,OVC,FEW,0.00,0.0,WeatherDisplay:10.37,2013-03-04 05:14:00,
2013-03-04 00:19:00,18.3,16.9,29.62,West,265,0.0,0.0,94,0.00,OVC,FEW,0.00,0.0,WeatherDisplay:10.37,2013-03-04 05:19:00,
2013-03-04 00:24:00,18.3,16.9,29.62,West,273,1.2,1.2,94,0.00,OVC,FEW,0.00,0.0,WeatherDisplay:10.37,2013-03-04 05:24:00,
2013-03-04 00:29:00,18.3,16.9,29.61,NNW,342,2.0,2.0,94,0.00,OVC,FEW,0.00,0.0,WeatherDisplay:10.37,2013-03-04 05:29:00,
2013-03-04 00:34:00,18.4,17.0,29.61,NNW,328,4.0,4.0,94,0.00,OVC,FEW,0.00,0.0,WeatherDisplay:10.37,2013-03-04 05:34:00,
2013-03-04 00:39:00,18.3,16.9,29.61,NE,50,5.0,5.0,94,0.00,OVC,FEW,0.00,0.0,WeatherDisplay:10.37,2013-03-04 05:39:00,
2013-03-04 00:44:00,18.3,16.9,29.61,WSW,254,5.0,5.0,94,0.00,OVC,FEW,0.00,0.0,WeatherDisplay:10.37,2013-03-04 05:44:00,
2013-03-04 00:49:00,18.1,16.7,29.62,NW,305,2.3,2.3,94,0.00,OVC,FEW,0.00,0.0,WeatherDisplay:10.37,2013-03-04 05:49:00,
2013-03-04 00:54:00,18.1,16.7,29.62,NW,307,0.0,0.0,94,0.00,OVC,FEW,0.00,0.0,WeatherDisplay:10.37,2013-03-04 05:54:00,
2013-03-04 00:59:00,18.1,16.7,29.62,WNW,302,2.3,2.3,94,0.00,OVC,FEW,0.00,0.0,WeatherDisplay:10.37,2013-03-04 05:59:00,
2013-03-04 01:04:00,18.1,16.7,29.62,WNW,294,3.5,3.5,94,0.00,OVC,FEW,0.00,0.0,WeatherDisplay:10.37,2013-03-04 06:04:00,
2013-03-04 01:09:00,18.1,16.7,29.62,West,267,1.2,0.0,94,0.00,OVC,FEW,0.00,0.0,WeatherDisplay:10.37,2013-03-04 06:09:00,
2013-03-04 01:14:00,18.0,16.6,29.62,WNW,298,0.0,0.0,94,0.00,OVC,FEW,0.00,0.0,WeatherDisplay:10.37,2013-03-04 06:14:00,
2013-03-04 01:19:00,18.0,16.6,29.62,NW,320,2.0,2.0,94,0.00,OVC,FEW,0.00,0.0,WeatherDisplay:10.37,2013-03-04 06:19:00,
2013-03-04 01:24:00,17.9,16.5,29.63,SW,236,3.5,3.5,94,0.00,OVC,FEW,0.00,0.0,WeatherDisplay:10.37,2013-03-04 06:24:00,
2013-03-04 01:29:00,17.9,16.5,29.63,WSW,240,1.2,1.2,94,0.00,OVC,FEW,0.00,0.0,WeatherDisplay:10.37,2013-03-04 06:29:00,
2013-03-04 01:34:00,17.9,16.5,29.63,West,265,2.3,2.3,94,0.00,OVC,FEW,0.00,0.0,WeatherDisplay:10.37,2013-03-04 06:34:00,
2013-03-04 01:39:00,17.8,16.4,29.63,NW,323,2.3,2.3,94,0.00,OVC,FEW,0.00,0.0,WeatherDisplay:10.37,2013-03-04 06:39:00,
2013-03-04 01:44:00,17.8,16.4,29.63,NW,323,1.2,1.2,94,0.00,OVC,FEW,0.00,0.0,WeatherDisplay:10.37,2013-03-04 06:44:00,
2013-03-04 01:49:00,17.9,16.5,29.63,WNW,286,2.0,2.0,94,0.00,OVC,FEW,0.00,0.0,WeatherDisplay:10.37,2013-03-04 06:49:00,
2013-03-04 01:54:00,17.9,16.7,29.62,South,170,1.2,1.2,95,0.00,OVC,FEW,0.00,0.0,WeatherDisplay:10.37,2013-03-04 06:54:00,
2013-03-04 01:59:00,18.0,16.8,29.63,South,170,0.0,0.0,95,0.00,OVC,FEW,0.00,0.0,WeatherDisplay:10.37,2013-03-04 06:59:00,
2013-03-04 02:04:00,18.1,16.9,29.63,West,275,3.5,3.5,95,0.00,OVC,FEW,0.00,0.0,WeatherDisplay:10.37,2013-03-04 07:04:00,
2013-03-04 02:09:00,18.1,16.9,29.62,NW,313,4.0,4.0,95,0.00,OVC,FEW,0.00,0.0,WeatherDisplay:10.37,2013-03-04 07:09:00,
2013-03-04 02:15:00,18.2,17.0,29.62,NW,318,4.0,4.0,95,0.00,OVC,FEW,0.00,0.0,WeatherDisplay:10.37,2013-03-04 07:15:00,
2013-03-04 02:20:00,18.2,17.0,29.62,SW,223,1.2,1.2,95,0.00,OVC,FEW,0.00,0.0,WeatherDisplay:10.37,2013-03-04 07:20:00,
2013-03-04 02:25:00,18.2,17.0,29.62,NNW,327,1.2,1.2,95,0.00,OVC,FEW,0.00,0.0,WeatherDisplay:10.37,2013-03-04 07:25:00,
2013-03-04 02:30:00,18.2,17.0,29.62,NNW,341,1.2,1.2,95,0.00,OVC,FEW,0.00,0.0,WeatherDisplay:10.37,2013-03-04 07:30:00,
2013-03-04 02:35:00,18.3,16.9,29.62,NNW,341,1.2,0.0,94,0.00,OVC,FEW,0.00,0.0,WeatherDisplay:10.37,2013-03-04 07:35:00,
2013-03-04 02:40:00,18.2,16.8,29.62,WNW,300,0.0,0.0,94,0.00,OVC,FEW,0.00,0.0,WeatherDisplay:10.37,2013-03-04 07:40:00,
2013-03-04 02:45:00,18.2,16.8,29.62,WNW,290,0.0,0.0,94,0.00,OVC,FEW,0.00,0.0,WeatherDisplay:10.37,2013-03-04 07:45:00,
2013-03-04 02:50:00,18.2,16.8,29.62,WNW,290,0.0,0.0,94,0.00,OVC,FEW,0.00,0.0,WeatherDisplay:10.37,2013-03-04 07:50:00,
2013-03-04 02:55:00,18.2,16.8,29.62,WNW,290,1.2,0.0,94,0.00,OVC,FEW,0.00,0.0,WeatherDisplay:10.37,2013-03-04 07:55:00,
2013-03-04 03:00:00,18.2,16.8,29.62,NW,315,2.3,2.3,94,0.00,OVC,FEW,0.00,0.0,WeatherDisplay:10.37,2013-03-04 08:00:00,
2013-03-04 03:05:00,18.3,16.9,29.62,NW,315,0.0,0.0,94,0.00,OVC,FEW,0.00,0.0,WeatherDisplay:10.37,2013-03-04 08:05:00,
2013-03-04 03:10:00,18.3,16.9,29.61,NW,321,1.2,0.0,94,0.00,OVC,FEW,0.00,0.0,WeatherDisplay:10.37,2013-03-04 08:10:00,
2013-03-04 03:15:00,18.3,16.9,29.62,NW,321,1.2,1.2,94,0.00,OVC,FEW,0.00,0.0,WeatherDisplay:10.37,2013-03-04 08:15:00,
2013-03-04 03:20:00,18.2,16.8,29.63,North,350,1.2,0.0,94,0.00,OVC,FEW,0.00,0.0,WeatherDisplay:10.37,2013-03-04 08:20:00,
2013-03-04 03:25:00,18.2,16.8,29.63,North,360,0.0,0.0,94,0.00,OVC,FEW,0.00,0.0,WeatherDisplay:10.37,2013-03-04 08:25:00,
2013-03-04 03:30:00,18.2,16.8,29.62,North,355,1.0,0.0,94,0.00,OVC,FEW,0.00,0.0,WeatherDisplay:10.37,2013-03-04 08:30:00,
2013-03-04 03:35:00,18.2,16.8,29.63,North,355,1.0,0.0,94,0.00,OVC,FEW,0.00,0.0,WeatherDisplay:10.37,2013-03-04 08:35:00,
2013-03-04 03:40:00,18.1,16.7,29.63,WNW,293,3.5,3.5,94,0.00,OVC,FEW,0.00,0.0,WeatherDisplay:10.37,2013-03-04 08:40:00,
2013-03-04 03:45:00,18.0,16.6,29.63,WNW,294,1.2,1.2,94,0.00,OVC,FEW,0.00,0.0,WeatherDisplay:10.37,2013-03-04 08:45:00,
2013-03-04 03:50:00,17.9,16.5,29.63,WNW,292,2.3,2.3,94,0.00,OVC,FEW,0.00,0.0,WeatherDisplay:10.37,2013-03-04 08:50:00,
2013-03-04 03:55:00,17.9,16.5,29.63,WNW,290,3.0,3.0,94,0.00,OVC,FEW,0.00,0.0,WeatherDisplay:10.37,2013-03-04 08:55:00,
2013-03-04 04:00:00,17.9,16.5,29.63,South,170,1.2,1.2,94,0.00,OVC,FEW,0.00,0.0,WeatherDisplay:10.37,2013-03-04 09:00:00,
2013-03-04 04:05:00,17.9,16.5,29.63,East,98,0.0,0.0,94,0.00,OVC,FEW,0.00,0.0,WeatherDisplay:10.37,2013-03-04 09:05:00,
2013-03-04 04:10:00,17.8,16.4,29.63,NNW,327,2.3,2.3,94,0.00,OVC,FEW,0.00,0.0,WeatherDisplay:10.37,2013-03-04 09:10:00,
2013-03-04 04:15:00,17.7,16.3,29.62,NW,307,2.3,2.3,94,0.00,OVC,FEW,0.00,0.0,WeatherDisplay:10.37,2013-03-04 09:15:00,
2013-03-04 04:20:00,17.7,16.3,29.62,West,259,2.3,2.3,94,0.00,OVC,FEW,0.00,0.0,WeatherDisplay:10.37,2013-03-04 09:20:00,
2013-03-04 04:26:00,17.7,16.3,29.62,NW,312,2.0,2.0,94,0.00,OVC,FEW,0.00,0.0,WeatherDisplay:10.37,2013-03-04 09:26:00,
2013-03-04 04:31:00,17.6,16.2,29.63,NW,321,2.3,2.3,94,0.00,OVC,FEW,0.00,0.0,WeatherDisplay:10.37,2013-03-04 09:31:00,
2013-03-04 04:36:00,17.6,16.2,29.63,NW,319,2.0,2.0,94,0.00,OVC,FEW,0.00,0.0,WeatherDisplay:10.37,2013-03-04 09:36:00,
2013-03-04 04:41:00,17.5,16.1,29.63,NW,317,0.0,0.0,94,0.00,OVC,FEW,0.00,0.0,WeatherDisplay:10.37,2013-03-04 09:41:00,
2013-03-04 04:46:00,17.4,16.0,29.63,North,355,0.0,0.0,94,0.00,OVC,FEW,0.00,0.0,WeatherDisplay:10.37,2013-03-04 09:46:00,
2013-03-04 04:51:00,17.4,16.0,29.63,NNW,340,1.2,1.2,94,0.00,OVC,FEW,0.00,0.0,WeatherDisplay:10.37,2013-03-04 09:51:00,
2013-03-04 04:56:00,17.4,16.0,29.64,NW,323,3.5,3.5,94,0.00,OVC,FEW,0.00,0.0,WeatherDisplay:10.37,2013-03-04 09:56:00,
2013-03-04 05:01:00,17.3,15.9,29.64,NW,319,1.2,1.2,94,0.00,OVC,FEW,0.00,0.0,WeatherDisplay:10.37,2013-03-04 10:01:00,
2013-03-04 05:06:00,17.3,15.9,29.64,NW,319,0.0,0.0,94,0.00,OVC,FEW,0.00,0.0,WeatherDisplay:10.37,2013-03-04 10:06:00,
2013-03-04 05:11:00,17.3,15.9,29.64,NE,34,1.2,1.2,94,0.00,OVC,FEW,0.00,0.0,WeatherDisplay:10.37,2013-03-04 10:11:00,
2013-03-04 05:16:00,17.2,15.8,29.64,West,278,2.3,2.3,94,0.00,OVC,FEW,0.00,0.0,WeatherDisplay:10.37,2013-03-04 10:16:00,
2013-03-04 05:21:00,17.2,15.8,29.63,North,10,2.3,2.3,94,0.00,OVC,FEW,0.00,0.0,WeatherDisplay:10.37,2013-03-04 10:21:00,
2013-03-04 05:26:00,17.2,15.8,29.64,NNW,348,2.3,2.3,94,0.00,OVC,FEW,0.00,0.0,WeatherDisplay:10.37,2013-03-04 10:26:00,
2013-03-04 05:31:00,17.1,15.7,29.64,North,11,1.2,0.0,94,0.00,OVC,FEW,0.00,0.0,WeatherDisplay:10.37,2013-03-04 10:31:00,
2013-03-04 05:36:00,17.2,15.8,29.63,NW,312,1.2,0.0,94,0.00,OVC,FEW,0.00,0.0,WeatherDisplay:10.37,2013-03-04 10:36:00,
2013-03-04 05:41:00,17.1,15.7,29.63,NNW,331,1.2,1.2,94,0.00,OVC,FEW,0.00,0.0,WeatherDisplay:10.37,2013-03-04 10:41:00,
2013-03-04 05:46:00,17.1,15.7,29.64,NNW,346,3.5,3.5,94,0.00,OVC,FEW,0.00,0.0,WeatherDisplay:10.37,2013-03-04 10:46:00,
2013-03-04 05:51:00,17.0,15.6,29.63,WNW,298,2.0,2.0,94,0.00,OVC,FEW,0.00,0.0,WeatherDisplay:10.37,2013-03-04 10:51:00,
2013-03-04 05:56:00,16.9,15.5,29.64,NW,319,3.5,3.5,94,0.00,OVC,FEW,0.00,0.0,WeatherDisplay:10.37,2013-03-04 10:56:00,
2013-03-04 06:01:00,16.9,15.5,29.64,SSW,207,1.2,1.2,94,0.00,OVC,FEW,0.00,0.0,WeatherDisplay:10.37,2013-03-04 11:01:00,
2013-03-04 06:06:00,16.7,15.3,29.64,West,273,1.2,1.2,94,0.00,OVC,FEW,0.00,0.0,WeatherDisplay:10.37,2013-03-04 11:06:00,
2013-03-04 06:11:00,16.7,15.3,29.64,NW,319,0.0,0.0,94,0.00,OVC,FEW,0.00,0.0,WeatherDisplay:10.37,2013-03-04 11:11:00,
2013-03-04 06:16:00,16.6,14.9,29.64,South,188,2.3,2.3,93,0.00,OVC,FEW,0.00,0.0,WeatherDisplay:10.37,2013-03-04 11:16:00,
2013-03-04 06:21:00,16.6,15.2,29.64,South,188,1.2,1.2,94,0.00,OVC,FEW,0.00,0.0,WeatherDisplay:10.37,2013-03-04 11:21:00,
2013-03-04 06:26:00,16.6,15.2,29.64,NW,311,1.2,0.0,94,0.00,OVC,FEW,0.00,0.0,WeatherDisplay:10.37,2013-03-04 11:26:00,
2013-03-04 06:31:00,16.6,15.2,29.64,NW,321,3.5,3.5,94,0.00,OVC,FEW,0.00,0.0,WeatherDisplay:10.37,2013-03-04 11:31:00,
2013-03-04 06:36:00,16.5,15.1,29.64,North,355,1.2,1.2,94,0.00,OVC,FEW,0.00,0.0,WeatherDisplay:10.37,2013-03-04 11:36:00,
2013-03-04 06:41:00,16.5,15.1,29.64,West,281,2.0,2.0,94,0.00,OVC,FEW,0.00,0.0,WeatherDisplay:10.37,2013-03-04 11:41:00,
2013-03-04 06:46:00,16.4,15.0,29.64,NNW,344,4.6,4.6,94,0.00,OVC,FEW,0.00,0.0,WeatherDisplay:10.37,2013-03-04 11:46:00,
2013-03-04 06:51:00,16.3,14.9,29.64,NW,317,3.0,3.0,94,0.00,OVC,FEW,0.00,0.0,WeatherDisplay:10.37,2013-03-04 11:51:00,
2013-03-04 06:56:00,16.3,14.9,29.64,North,350,1.2,0.0,94,0.00,OVC,FEW,0.00,0.0,WeatherDisplay:10.37,2013-03-04 11:56:00,
2013-03-04 07:01:00,16.3,14.9,29.64,WSW,252,4.0,4.0,94,0.00,OVC,FEW,0.00,0.0,WeatherDisplay:10.37,2013-03-04 12:01:00,
2013-03-04 07:06:00,16.3,14.9,29.64,NW,315,3.5,3.5,94,0.00,OVC,FEW,0.00,5.0,WeatherDisplay:10.37,2013-03-04 12:06:00,
2013-03-04 07:11:00,16.3,14.9,29.64,NNW,329,3.5,3.5,94,0.00,OVC,FEW,0.00,5.0,WeatherDisplay:10.37,2013-03-04 12:11:00,
2013-03-04 07:16:00,16.3,14.9,29.64,WNW,294,1.0,1.0,94,0.00,OVC,FEW,0.00,7.0,WeatherDisplay:10.37,2013-03-04 12:16:00,
2013-03-04 07:21:00,16.3,14.9,29.64,North,11,0.0,0.0,94,0.00,OVC,FEW,0.00,9.0,WeatherDisplay:10.37,2013-03-04 12:21:00,
2013-03-04 07:26:00,16.5,15.1,29.64,NW,314,3.5,3.5,94,0.00,OVC,FEW,0.00,11.0,WeatherDisplay:10.37,2013-03-04 12:26:00,
2013-03-04 07:31:00,16.5,14.8,29.64,NW,305,3.5,3.5,93,0.00,OVC,FEW,0.00,11.0,WeatherDisplay:10.37,2013-03-04 12:31:00,
2013-03-04 07:36:00,16.6,15.2,29.64,NW,311,1.0,1.0,94,0.00,OVC,FEW,0.00,12.0,WeatherDisplay:10.37,2013-03-04 12:36:00,
2013-03-04 07:41:00,16.6,14.9,29.64,NNW,329,1.2,0.0,93,0.00,OVC,FEW,0.00,12.0,WeatherDisplay:10.37,2013-03-04 12:41:00,
2013-03-04 07:46:00,16.5,14.8,29.64,NW,311,3.5,3.5,93,0.00,OVC,FEW,0.00,14.0,WeatherDisplay:10.37,2013-03-04 12:46:00,
2013-03-04 07:51:00,16.4,14.7,29.64,WNW,303,0.0,0.0,93,0.00,-SN,FEW,0.00,18.0,WeatherDisplay:10.37,2013-03-04 12:51:00,
2013-03-04 07:56:00,16.4,14.7,29.64,South,182,1.0,0.0,93,0.00,-SN,FEW,0.00,16.0,WeatherDisplay:10.37,2013-03-04 12:56:00,
2013-03-04 08:01:00,16.4,14.7,29.65,South,178,1.2,0.0,93,0.00,-SN,FEW,0.00,14.0,WeatherDisplay:10.37,2013-03-04 13:01:00,
2013-03-04 08:06:00,16.3,14.4,29.65,West,272,3.5,3.5,92,0.00,-SN,FEW,0.00,12.0,WeatherDisplay:10.37,2013-03-04 13:06:00,
2013-03-04 08:11:00,16.2,14.3,29.65,NNW,338,6.9,6.9,92,0.00,-SN,FEW,0.00,14.0,WeatherDisplay:10.37,2013-03-04 13:11:00,
2013-03-04 08:16:00,16.2,14.3,29.65,NW,309,1.2,1.2,92,0.00,-SN,FEW,0.00,14.0,WeatherDisplay:10.37,2013-03-04 13:16:00,
2013-03-04 08:21:00,16.1,14.2,29.65,NW,311,2.3,2.3,92,0.00,-SN,FEW,0.00,14.0,WeatherDisplay:10.37,2013-03-04 13:21:00,
2013-03-04 08:26:00,16.1,14.2,29.65,WSW,242,4.0,4.0,92,0.00,-SN,FEW,0.00,16.0,WeatherDisplay:10.37,2013-03-04 13:26:00,
2013-03-04 08:31:00,16.1,14.2,29.65,North,360,3.5,3.5,92,0.00,-SN,FEW,0.00,19.0,WeatherDisplay:10.37,2013-03-04 13:31:00,
2013-03-04 08:36:00,16.1,14.2,29.65,WNW,296,2.3,0.0,92,0.00,-SN,FEW,0.00,21.0,WeatherDisplay:10.37,2013-03-04 13:36:00,
2013-03-04 08:41:00,16.1,14.2,29.65,SSW,210,1.2,0.0,92,0.00,-SN,FEW,0.00,26.0,WeatherDisplay:10.37,2013-03-04 13:41:00,
2013-03-04 08:46:00,16.1,14.2,29.65,SSE,148,2.3,2.3,92,0.00,-SN,FEW,0.00,32.0,WeatherDisplay:10.37,2013-03-04 13:46:00,
2013-03-04 08:51:00,16.3,14.4,29.65,NNW,333,4.0,4.0,92,0.00,-SN,FEW,0.00,35.0,WeatherDisplay:10.37,2013-03-04 13:51:00,
2013-03-04 08:56:00,16.5,14.6,29.65,NNW,335,1.2,1.2,92,0.00,-SN,FEW,0.00,35.0,WeatherDisplay:10.37,2013-03-04 13:56:00,
2013-03-04 09:01:00,16.6,14.7,29.64,NW,326,3.0,3.0,92,0.00,-SN,FEW,0.00,37.0,WeatherDisplay:10.37,2013-03-04 14:01:00,
2013-03-04 09:06:00,16.7,14.8,29.64,West,279,1.2,1.2,92,0.00,-SN,FEW,0.00,37.0,WeatherDisplay:10.37,2013-03-04 14:06:00,
2013-03-04 09:11:00,17.0,15.1,29.64,WNW,282,1.2,1.2,92,0.00,-SN,FEW,0.00,44.0,WeatherDisplay:10.37,2013-03-04 14:11:00,
2013-03-04 09:16:00,17.1,15.2,29.64,WNW,297,3.0,3.0,92,0.00,-SN,FEW,0.00,56.0,WeatherDisplay:10.37,2013-03-04 14:16:00,
2013-03-04 09:21:00,17.4,15.5,29.64,WNW,301,4.0,4.0,92,0.00,-SN,FEW,0.00,70.0,WeatherDisplay:10.37,2013-03-04 14:21:00,
2013-03-04 09:26:00,17.6,15.7,29.64,WNW,302,4.0,4.0,92,0.00,-SN,FEW,0.00,70.0,WeatherDisplay:10.37,2013-03-04 14:26:00,
2013-03-04 09:31:00,17.6,15.4,29.64,NNE,14,4.0,4.0,91,0.00,-SN,FEW,0.00,58.0,WeatherDisplay:10.37,2013-03-04 14:31:00,
2013-03-04 09:37:00,17.5,15.1,29.65,WNW,293,3.5,3.5,90,0.00,-SN,FEW,0.00,49.0,WeatherDisplay:10.37,2013-03-04 14:37:00,
2013-03-04 09:42:00,17.3,15.1,29.65,NNW,327,1.2,1.2,91,0.00,-SN,FEW,0.00,51.0,WeatherDisplay:10.37,2013-03-04 14:42:00,
2013-03-04 09:47:00,17.3,15.1,29.65,SW,215,4.0,4.0,91,0.00,-SN,FEW,0.00,58.0,WeatherDisplay:10.37,2013-03-04 14:47:00,
2013-03-04 09:52:00,17.4,15.2,29.65,WNW,284,2.3,2.3,91,0.00,-SN,FEW,0.00,63.0,WeatherDisplay:10.37,2013-03-04 14:52:00,
2013-03-04 09:57:00,17.4,15.0,29.64,SW,225,2.3,2.3,90,0.00,-SN,FEW,0.00,65.0,WeatherDisplay:10.37,2013-03-04 14:57:00,
2013-03-04 10:02:00,17.5,15.1,29.64,NW,321,2.3,2.3,90,0.00,-SN,FEW,0.00,54.0,WeatherDisplay:10.37,2013-03-04 15:02:00,
2013-03-04 10:07:00,17.4,15.2,29.65,NW,319,1.2,1.2,91,0.00,-SN,FEW,0.00,51.0,WeatherDisplay:10.37,2013-03-04 15:07:00,
2013-03-04 10:12:00,17.5,15.3,29.65,WNW,291,1.2,0.0,91,0.00,-SN,FEW,0.00,49.0,WeatherDisplay:10.37,2013-03-04 15:12:00,
2013-03-04 10:17:00,17.5,15.1,29.65,West,277,2.0,2.0,90,0.00,-SN,FEW,0.00,42.0,WeatherDisplay:10.37,2013-03-04 15:17:00,
2013-03-04 10:22:00,17.4,15.2,29.65,North,5,4.6,4.6,91,0.00,-SN,FEW,0.00,40.0,WeatherDisplay:10.37,2013-03-04 15:22:00,
2013-03-04 10:27:00,17.3,15.1,29.65,NW,304,2.3,2.3,91,0.00,-SN,FEW,0.00,42.0,WeatherDisplay:10.37,2013-03-04 15:27:00,
2013-03-04 10:32:00,17.1,14.7,29.65,NW,322,4.6,4.6,90,0.00,-SN,FEW,0.00,51.0,WeatherDisplay:10.37,2013-03-04 15:32:00,
2013-03-04 10:37:00,17.0,14.8,29.65,West,263,2.3,2.3,91,0.00,-SN,FEW,0.00,62.0,WeatherDisplay:10.37,2013-03-04 15:37:00,
2013-03-04 10:42:00,17.3,15.1,29.64,WNW,288,6.0,6.0,91,0.00,-SN,FEW,0.00,76.0,WeatherDisplay:10.37,2013-03-04 15:42:00,
2013-03-04 10:47:00,17.6,15.4,29.64,WNW,299,1.2,1.2,91,0.00,-SN,FEW,0.00,86.0,WeatherDisplay:10.37,2013-03-04 15:47:00,
2013-03-04 10:52:00,17.9,15.7,29.64,NNW,342,3.5,3.5,91,0.00,-SN,FEW,0.00,83.0,WeatherDisplay:10.37,2013-03-04 15:52:00,
2013-03-04 10:57:00,18.3,16.1,29.64,WNW,298,1.2,1.2,91,0.00,-SN,FEW,0.00,86.0,WeatherDisplay:10.37,2013-03-04 15:57:00,
2013-03-04 11:02:00,18.6,16.2,29.64,NNW,340,1.2,1.2,90,0.00,-SN,FEW,0.00,83.0,WeatherDisplay:10.37,2013-03-04 16:02:00,
2013-03-04 11:07:00,18.7,16.3,29.65,West,271,5.0,5.0,90,0.00,-SN,FEW,0.00,102.0,WeatherDisplay:10.37,2013-03-04 16:07:00,
2013-03-04 11:12:00,18.7,16.3,29.64,NW,304,3.0,3.0,90,0.00,-SN,FEW,0.00,97.0,WeatherDisplay:10.37,2013-03-04 16:12:00,
2013-03-04 11:17:00,18.8,16.1,29.65,West,273,2.0,2.0,89,0.00,-SN,FEW,0.00,67.0,WeatherDisplay:10.37,2013-03-04 16:17:00,
2013-03-04 11:22:00,18.7,15.7,29.65,SSW,207,1.2,1.2,88,0.00,-SN,FEW,0.00,60.0,WeatherDisplay:10.37,2013-03-04 16:22:00,
2013-03-04 11:27:00,18.6,15.9,29.65,NW,318,2.0,2.0,89,0.00,-SN,FEW,0.00,76.0,WeatherDisplay:10.37,2013-03-04 16:27:00,
2013-03-04 11:32:00,18.6,15.9,29.65,NNW,346,3.5,3.5,89,0.00,-SN,FEW,0.00,95.0,WeatherDisplay:10.37,2013-03-04 16:32:00,
2013-03-04 11:37:00,18.7,16.0,29.64,South,182,4.0,4.0,89,0.00,-SN,FEW,0.00,91.0,WeatherDisplay:10.37,2013-03-04 16:37:00,
2013-03-04 11:42:00,18.7,16.0,29.65,WNW,303,2.0,2.0,89,0.00,-SN,FEW,0.00,77.0,WeatherDisplay:10.37,2013-03-04 16:42:00,
2013-03-04 11:47:00,18.7,16.0,29.65,East,79,3.5,3.5,89,0.00,-SN,FEW,0.00,79.0,WeatherDisplay:10.37,2013-03-04 16:47:00,
2013-03-04 11:52:00,18.5,15.3,29.65,SSW,207,3.5,3.5,87,0.00,-SN,FEW,0.00,93.0,WeatherDisplay:10.37,2013-03-04 16:52:00,
2013-03-04 11:57:00,18.5,15.5,29.65,NNW,337,3.5,3.5,88,0.00,-SN,FEW,0.00,93.0,WeatherDisplay:10.37,2013-03-04 16:57:00,
2013-03-04 12:02:00,18.7,15.7,29.65,WNW,285,5.0,5.0,88,0.00,-SN,FEW,0.00,90.0,WeatherDisplay:10.37,2013-03-04 17:02:00,
2013-03-04 12:07:00,18.5,15.5,29.65,South,182,3.5,3.5,88,0.00,-SN,FEW,0.00,83.0,WeatherDisplay:10.37,2013-03-04 17:07:00,
2013-03-04 12:12:00,18.6,15.9,29.65,West,267,2.3,2.3,89,0.00,-SN,FEW,0.00,77.0,WeatherDisplay:10.37,2013-03-04 17:12:00,
2013-03-04 12:17:00,18.7,15.5,29.65,WSW,247,5.8,5.8,87,0.00,-SN,FEW,0.00,63.0,WeatherDisplay:10.37,2013-03-04 17:17:00,
2013-03-04 12:22:00,18.4,15.2,29.65,SSW,200,3.5,3.5,87,0.00,-SN,FEW,0.00,49.0,WeatherDisplay:10.37,2013-03-04 17:22:00,
2013-03-04 12:27:00,18.2,15.2,29.65,WNW,285,3.5,3.5,88,0.00,-SN,FEW,0.00,51.0,WeatherDisplay:10.37,2013-03-04 17:27:00,
2013-03-04 12:32:00,18.0,15.0,29.65,South,188,5.8,0.0,88,0.00,-SN,FEW,0.00,49.0,WeatherDisplay:10.37,2013-03-04 17:32:00,
2013-03-04 12:37:00,18.0,15.3,29.65,West,263,3.5,3.5,89,0.00,-SN,FEW,0.00,46.0,WeatherDisplay:10.37,2013-03-04 17:37:00,
2013-03-04 12:42:00,17.9,15.2,29.66,WNW,295,5.8,5.8,89,0.00,-SN,FEW,0.00,46.0,WeatherDisplay:10.37,2013-03-04 17:42:00,
2013-03-04 12:47:00,18.0,15.6,29.66,SE,133,3.5,3.5,90,0.00,-SN,FEW,0.00,40.0,WeatherDisplay:10.37,2013-03-04 17:47:00,
2013-03-04 12:52:00,17.8,15.4,29.66,SSE,167,2.0,2.0,90,0.00,-SN,FEW,0.00,42.0,WeatherDisplay:10.37,2013-03-04 17:52:00,
2013-03-04 12:57:00,17.8,15.4,29.65,SE,127,3.5,3.5,90,0.00,-SN,FEW,0.00,49.0,WeatherDisplay:10.37,2013-03-04 17:57:00,
2013-03-04 13:02:00,17.7,15.3,29.65,ENE,69,2.3,2.3,90,0.00,-SN,FEW,0.00,53.0,WeatherDisplay:10.37,2013-03-04 18:02:00,
2013-03-04 13:07:00,17.6,15.2,29.66,WNW,286,3.5,3.5,90,0.00,-SN,FEW,0.00,49.0,WeatherDisplay:10.37,2013-03-04 18:07:00,
2013-03-04 13:12:00,17.6,15.2,29.66,WSW,240,6.0,6.0,90,0.00,-SN,FEW,0.00,49.0,WeatherDisplay:10.37,2013-03-04 18:12:00,
2013-03-04 13:17:00,17.5,14.8,29.66,SW,225,5.0,5.0,89,0.00,-SN,FEW,0.00,56.0,WeatherDisplay:10.37,2013-03-04 18:17:00,
2013-03-04 13:22:00,17.4,15.0,29.66,ESE,108,1.2,1.2,90,0.00,-SN,FEW,0.00,60.0,WeatherDisplay:10.37,2013-03-04 18:22:00,
2013-03-04 13:27:00,17.7,15.3,29.66,WSW,239,1.2,1.2,90,0.00,-SN,FEW,0.00,53.0,WeatherDisplay:10.37,2013-03-04 18:27:00,
2013-03-04 13:29:00,17.7,15.3,29.66,NE,55,3.5,3.5,90,0.00,-SN,FEW,0.00,53.0,WeatherDisplay:10.37,2013-03-04 18:29:00,
2013-03-04 13:30:00,17.7,15.3,29.66,NE,55,3.5,3.5,90,0.00,-SN,FEW,0.00,53.0,WeatherDisplay:10.37,2013-03-04 18:30:00,
2013-03-04 13:31:00,17.7,15.3,29.66,North,355,3.5,3.5,90,0.00,-SN,FEW,0.00,54.0,WeatherDisplay:10.37,2013-03-04 18:31:00,
2013-03-04 13:33:00,17.8,15.4,29.66,North,355,1.2,1.2,90,0.00,-SN,FEW,0.00,54.0,WeatherDisplay:10.37,2013-03-04 18:33:00,
2013-03-04 13:38:00,17.9,15.5,29.66,WSW,253,4.0,4.0,90,0.00,-SN,FEW,0.00,58.0,WeatherDisplay:10.37,2013-03-04 18:38:00,
2013-03-04 13:43:00,18.0,15.3,29.66,West,279,4.0,4.0,89,0.00,-SN,FEW,0.00,56.0,WeatherDisplay:10.37,2013-03-04 18:43:00,
2013-03-04 13:48:00,18.1,15.7,29.66,WNW,283,3.0,3.0,90,0.00,-SN,FEW,0.00,49.0,WeatherDisplay:10.37,2013-03-04 18:48:00,
2013-03-04 13:53:00,18.0,15.3,29.67,SSW,192,1.2,0.0,89,0.00,-SN,FEW,0.00,42.0,WeatherDisplay:10.37,2013-03-04 18:53:00,
2013-03-04 13:58:00,18.1,15.7,29.67,SSW,197,2.3,2.3,90,0.00,-SN,FEW,0.00,39.0,WeatherDisplay:10.37,2013-03-04 18:58:00,
2013-03-04 14:03:00,18.2,15.5,29.67,SSW,200,2.3,2.3,89,0.00,-SN,FEW,0.00,39.0,WeatherDisplay:10.37,2013-03-04 19:03:00,
2013-03-04 14:08:00,18.1,15.7,29.67,North,355,2.0,2.0,90,0.00,-SN,FEW,0.00,42.0,WeatherDisplay:10.37,2013-03-04 19:08:00,
2013-03-04 14:13:00,18.3,15.9,29.67,North,355,1.0,1.0,90,0.00,-SN,FEW,0.00,37.0,WeatherDisplay:10.37,2013-03-04 19:13:00,
2013-03-04 14:18:00,18.2,15.5,29.67,WNW,286,0.0,0.0,89,0.00,-SN,FEW,0.00,42.0,WeatherDisplay:10.37,2013-03-04 19:18:00,
2013-03-04 14:23:00,18.2,15.5,29.67,WSW,248,4.0,4.0,89,0.00,-SN,FEW,0.00,37.0,WeatherDisplay:10.37,2013-03-04 19:23:00,
2013-03-04 14:28:00,18.1,15.7,29.67,WNW,294,3.5,3.5,90,0.00,-SN,FEW,0.00,37.0,WeatherDisplay:10.37,2013-03-04 19:28:00,
2013-03-04 14:33:00,18.1,15.7,29.67,NNW,342,2.3,2.3,90,0.00,-SN,FEW,0.00,37.0,WeatherDisplay:10.37,2013-03-04 19:33:00,
2013-03-04 14:38:00,18.1,15.7,29.68,NNW,340,1.2,1.2,90,0.00,-SN,FEW,0.00,35.0,WeatherDisplay:10.37,2013-03-04 19:38:00,
2013-03-04 14:43:00,17.9,15.2,29.68,WNW,296,1.2,0.0,89,0.00,-SN,FEW,0.00,18.0,WeatherDisplay:10.37,2013-03-04 19:43:00,
2013-03-04 14:48:00,17.6,14.9,29.68,WNW,294,2.3,2.3,89,0.00,-SN,FEW,0.00,14.0,WeatherDisplay:10.37,2013-03-04 19:48:00,
2013-03-04 14:53:00,17.5,15.1,29.68,WNW,302,3.0,3.0,90,0.00,-SN,FEW,0.00,18.0,WeatherDisplay:10.37,2013-03-04 19:53:00,
2013-03-04 14:58:00,17.4,15.0,29.68,WSW,242,2.3,2.3,90,0.00,-SN,FEW,0.00,26.0,WeatherDisplay:10.37,2013-03-04 19:58:00,
2013-03-04 15:03:00,17.4,15.2,29.69,West,272,1.2,0.0,91,0.00,-SN,FEW,0.00,21.0,WeatherDisplay:10.37,2013-03-04 20:03:00,
2013-03-04 15:08:00,17.3,15.1,29.69,SSE,165,2.3,2.3,91,0.00,-SN,FEW,0.00,14.0,WeatherDisplay:10.37,2013-03-04 20:08:00,
2013-03-04 15:13:00,17.2,15.0,29.69,SSW,193,1.2,1.2,91,0.00,-SN,FEW,0.00,12.0,WeatherDisplay:10.37,2013-03-04 20:13:00,
2013-03-04 15:18:00,17.1,14.9,29.69,SSW,196,1.2,1.2,91,0.00,-SN,FEW,0.00,11.0,WeatherDisplay:10.37,2013-03-04 20:18:00,
2013-03-04 15:23:00,17.0,14.8,29.69,SSW,195,2.3,2.3,91,0.00,-SN,FEW,0.00,9.0,WeatherDisplay:10.37,2013-03-04 20:23:00,
2013-03-04 15:28:00,16.9,15.0,29.70,WSW,238,2.3,2.3,92,0.00,-SN,FEW,0.00,7.0,WeatherDisplay:10.37,2013-03-04 20:28:00,
2013-03-04 15:33:00,16.7,14.8,29.70,South,190,4.0,4.0,92,0.00,-SN,FEW,0.00,9.0,WeatherDisplay:10.37,2013-03-04 20:33:00,
2013-03-04 15:38:00,16.7,14.8,29.70,SSW,205,1.2,1.2,92,0.00,-SN,FEW,0.00,7.0,WeatherDisplay:10.37,2013-03-04 20:38:00,
2013-03-04 15:43:00,16.7,15.0,29.70,SSW,198,1.0,1.0,93,0.00,-SN,FEW,0.00,5.0,WeatherDisplay:10.37,2013-03-04 20:43:00,
2013-03-04 15:48:00,16.7,15.0,29.70,SSW,202,2.3,2.3,93,0.00,-SN,FEW,0.00,5.0,WeatherDisplay:10.37,2013-03-04 20:48:00,
2013-03-04 15:53:00,16.7,15.0,29.70,SSW,198,2.0,2.0,93,0.00,-SN,FEW,0.00,5.0,WeatherDisplay:10.37,2013-03-04 20:53:00,
2013-03-04 15:58:00,16.7,15.0,29.71,SSW,200,1.2,1.2,93,0.00,-SN,FEW,0.00,5.0,WeatherDisplay:10.37,2013-03-04 20:58:00,
2013-03-04 16:03:00,16.6,14.9,29.71,SSW,201,0.0,0.0,93,0.00,-SN,FEW,0.00,5.0,WeatherDisplay:10.37,2013-03-04 21:03:00,
2013-03-04 16:08:00,16.5,14.8,29.71,SSW,206,1.2,0.0,93,0.00,-SN,FEW,0.00,7.0,WeatherDisplay:10.37,2013-03-04 21:08:00,
2013-03-04 16:13:00,16.5,14.8,29.71,SSW,205,0.0,0.0,93,0.00,-SN,FEW,0.00,5.0,WeatherDisplay:10.37,2013-03-04 21:13:00,
2013-03-04 16:18:00,16.5,14.8,29.72,SSW,206,0.0,0.0,93,0.00,-SN,FEW,0.00,5.0,WeatherDisplay:10.37,2013-03-04 21:18:00,
2013-03-04 16:23:00,16.5,14.8,29.72,SSW,192,0.0,0.0,93,0.00,-SN,FEW,0.00,5.0,WeatherDisplay:10.37,2013-03-04 21:23:00,
2013-03-04 16:28:00,16.5,14.8,29.72,SSW,194,0.0,0.0,93,0.00,-SN,FEW,0.00,0.0,WeatherDisplay:10.37,2013-03-04 21:28:00,
2013-03-04 16:33:00,16.6,14.9,29.72,WSW,239,0.0,0.0,93,0.00,-SN,FEW,0.00,0.0,WeatherDisplay:10.37,2013-03-04 21:33:00,
2013-03-04 16:38:00,16.6,14.9,29.72,NW,325,2.3,2.3,93,0.00,-SN,FEW,0.00,0.0,WeatherDisplay:10.37,2013-03-04 21:38:00,
2013-03-04 16:43:00,16.6,14.9,29.72,NW,323,0.0,0.0,93,0.00,-SN,FEW,0.00,0.0,WeatherDisplay:10.37,2013-03-04 21:43:00,
2013-03-04 16:48:00,16.6,14.9,29.72,WSW,248,3.5,0.0,93,0.00,-SN,FEW,0.00,0.0,WeatherDisplay:10.37,2013-03-04 21:48:00,
2013-03-04 16:53:00,16.6,14.7,29.73,NNW,337,0.0,0.0,92,0.00,-SN,FEW,0.00,0.0,WeatherDisplay:10.37,2013-03-04 21:53:00,
2013-03-04 16:58:00,16.5,14.6,29.73,NNW,336,2.0,2.0,92,0.00,-SN,FEW,0.00,0.0,WeatherDisplay:10.37,2013-03-04 21:58:00,
2013-03-04 17:03:00,16.4,14.5,29.74,NW,320,0.0,0.0,92,0.00,OVC,FEW,0.00,0.0,WeatherDisplay:10.37,2013-03-04 22:03:00,
2013-03-04 17:08:00,16.4,14.7,29.74,NW,321,0.0,0.0,93,0.00,OVC,FEW,0.00,0.0,WeatherDisplay:10.37,2013-03-04 22:08:00,
2013-03-04 17:13:00,16.5,14.8,29.74,NW,321,1.0,1.0,93,0.00,OVC,FEW,0.00,0.0,WeatherDisplay:10.37,2013-03-04 22:13:00,
2013-03-04 17:18:00,16.5,14.8,29.74,NW,321,2.3,0.0,93,0.00,-SN,FEW,0.00,0.0,WeatherDisplay:10.37,2013-03-04 22:18:00,
2013-03-04 17:24:00,16.4,14.7,29.75,NW,317,1.2,0.0,93,0.00,-SN,FEW,0.00,0.0,WeatherDisplay:10.37,2013-03-04 22:24:00,
2013-03-04 17:29:00,16.4,14.7,29.75,NW,317,0.0,0.0,93,0.00,-SN,FEW,0.00,0.0,WeatherDisplay:10.37,2013-03-04 22:29:00,
2013-03-04 17:34:00,16.5,14.8,29.75,NW,317,1.2,1.2,93,0.00,-SN,FEW,0.00,0.0,WeatherDisplay:10.37,2013-03-04 22:34:00,
2013-03-04 17:39:00,16.5,14.8,29.75,NW,318,0.0,0.0,93,0.00,-SN,FEW,0.00,0.0,WeatherDisplay:10.37,2013-03-04 22:39:00,
2013-03-04 17:44:00,16.5,14.8,29.76,West,267,1.2,1.2,93,0.00,-SN,FEW,0.00,0.0,WeatherDisplay:10.37,2013-03-04 22:44:00,
2013-03-04 17:49:00,16.4,14.7,29.77,West,272,1.2,0.0,93,0.00,OVC,FEW,0.00,0.0,WeatherDisplay:10.37,2013-03-04 22:49:00,
2013-03-04 17:54:00,16.4,14.7,29.76,West,272,0.0,0.0,93,0.00,OVC,FEW,0.00,0.0,WeatherDisplay:10.37,2013-03-04 22:54:00,
2013-03-04 17:59:00,16.4,14.7,29.75,West,272,1.2,0.0,93,0.00,OVC,FEW,0.00,0.0,WeatherDisplay:10.37,2013-03-04 22:59:00,
2013-03-04 18:04:00,16.3,14.6,29.76,West,275,0.0,0.0,93,0.00,OVC,FEW,0.00,0.0,WeatherDisplay:10.37,2013-03-04 23:04:00,
2013-03-04 18:09:00,16.3,14.6,29.77,West,268,2.0,2.0,93,0.00,OVC,FEW,0.00,0.0,WeatherDisplay:10.37,2013-03-04 23:09:00,
2013-03-04 18:14:00,16.2,14.5,29.77,West,269,0.0,0.0,93,0.00,OVC,FEW,0.00,0.0,WeatherDisplay:10.37,2013-03-04 23:14:00,
2013-03-04 18:19:00,16.3,14.6,29.77,West,273,2.3,2.3,93,0.00,OVC,FEW,0.00,0.0,WeatherDisplay:10.37,2013-03-04 23:19:00,
2013-03-04 18:24:00,16.2,14.5,29.77,WNW,301,0.0,0.0,93,0.00,OVC,FEW,0.00,0.0,WeatherDisplay:10.37,2013-03-04 23:24:00,
2013-03-04 18:29:00,16.2,14.5,29.77,WNW,294,1.0,1.0,93,0.00,OVC,FEW,0.00,0.0,WeatherDisplay:10.37,2013-03-04 23:29:00,
2013-03-04 18:34:00,16.2,14.5,29.77,WNW,290,0.0,0.0,93,0.00,OVC,FEW,0.00,0.0,WeatherDisplay:10.37,2013-03-04 23:34:00,
2013-03-04 18:39:00,16.2,14.5,29.77,WNW,292,1.2,1.2,93,0.00,OVC,FEW,0.00,0.0,WeatherDisplay:10.37,2013-03-04 23:39:00,
2013-03-04 18:44:00,16.2,14.5,29.77,West,280,0.0,0.0,93,0.00,OVC,FEW,0.00,0.0,WeatherDisplay:10.37,2013-03-04 23:44:00,
2013-03-04 18:49:00,16.3,14.6,29.78,West,279,2.3,2.3,93,0.00,OVC,FEW,0.00,0.0,WeatherDisplay:10.37,2013-03-04 23:49:00,
2013-03-04 18:54:00,16.3,14.6,29.78,WSW,254,2.3,2.3,93,0.00,OVC,FEW,0.00,0.0,WeatherDisplay:10.37,2013-03-04 23:54:00,
2013-03-04 18:59:00,16.3,14.6,29.78,WSW,254,1.2,1.2,93,0.00,OVC,FEW,0.00,0.0,WeatherDisplay:10.37,2013-03-04 23:59:00,
2013-03-04 19:04:00,16.3,14.6,29.79,WSW,249,0.0,0.0,93,0.00,OVC,FEW,0.00,0.0,WeatherDisplay:10.37,2013-03-05 00:04:00,
2013-03-04 19:09:00,16.4,14.7,29.79,SSW,193,2.3,0.0,93,0.00,OVC,FEW,0.00,0.0,WeatherDisplay:10.37,2013-03-05 00:09:00,
2013-03-04 19:14:00,16.3,14.6,29.79,SE,125,1.2,1.2,93,0.00,OVC,FEW,0.00,0.0,WeatherDisplay:10.37,2013-03-05 00:14:00,
2013-03-04 19:19:00,16.2,14.5,29.79,SE,125,0.0,0.0,93,0.00,OVC,FEW,0.00,0.0,WeatherDisplay:10.37,2013-03-05 00:19:00,
2013-03-04 19:24:00,16.2,14.5,29.79,SE,127,0.0,0.0,93,0.00,OVC,FEW,0.00,0.0,WeatherDisplay:10.37,2013-03-05 00:24:00,
2013-03-04 19:29:00,16.3,14.6,29.79,SE,127,1.2,0.0,93,0.00,OVC,FEW,0.00,0.0,WeatherDisplay:10.37,2013-03-05 00:29:00,
2013-03-04 19:34:00,16.3,14.6,29.80,SE,130,0.0,0.0,93,0.00,OVC,FEW,0.00,0.0,WeatherDisplay:10.37,2013-03-05 00:34:00,
2013-03-04 19:40:00,16.2,14.5,29.80,SE,130,1.2,0.0,93,0.00,OVC,FEW,0.00,0.0,WeatherDisplay:10.37,2013-03-05 00:40:00,
2013-03-04 19:45:00,16.2,14.5,29.80,SE,130,0.0,0.0,93,0.00,OVC,FEW,0.00,0.0,WeatherDisplay:10.37,2013-03-05 00:45:00,
2013-03-04 19:50:00,16.2,14.5,29.80,SE,130,0.0,0.0,93,0.00,OVC,FEW,0.00,0.0,WeatherDisplay:10.37,2013-03-05 00:50:00,
2013-03-04 19:55:00,16.2,14.5,29.80,SE,130,0.0,0.0,93,0.00,OVC,FEW,0.00,0.0,WeatherDisplay:10.37,2013-03-05 00:55:00,
2013-03-04 20:00:00,16.2,14.5,29.81,SE,130,0.0,0.0,93,0.00,OVC,FEW,0.00,0.0,WeatherDisplay:10.37,2013-03-05 01:00:00,
2013-03-04 20:05:00,16.2,14.5,29.81,SE,130,0.0,0.0,93,0.00,OVC,FEW,0.00,0.0,WeatherDisplay:10.37,2013-03-05 01:05:00,
2013-03-04 20:10:00,16.2,14.5,29.81,SE,130,0.0,0.0,93,0.00,OVC,FEW,0.00,0.0,WeatherDisplay:10.37,2013-03-05 01:10:00,
2013-03-04 20:15:00,16.2,14.5,29.82,SE,130,0.0,0.0,93,0.00,OVC,FEW,0.00,0.0,WeatherDisplay:10.37,2013-03-05 01:15:00,
2013-03-04 20:20:00,16.2,14.5,29.82,SE,130,0.0,0.0,93,0.00,OVC,FEW,0.00,0.0,WeatherDisplay:10.37,2013-03-05 01:20:00,
2013-03-04 20:25:00,16.2,14.5,29.82,SE,130,0.0,0.0,93,0.00,OVC,FEW,0.00,0.0,WeatherDisplay:10.37,2013-03-05 01:25:00,
2013-03-04 20:30:00,16.2,14.5,29.82,SE,130,0.0,0.0,93,0.00,OVC,FEW,0.00,0.0,WeatherDisplay:10.37,2013-03-05 01:30:00,
2013-03-04 20:35:00,16.2,14.5,29.82,SE,130,1.2,0.0,93,0.00,OVC,FEW,0.00,0.0,WeatherDisplay:10.37,2013-03-05 01:35:00,
2013-03-04 20:40:00,16.2,14.5,29.82,SE,130,0.0,0.0,93,0.00,OVC,FEW,0.00,0.0,WeatherDisplay:10.37,2013-03-05 01:40:00,
2013-03-04 20:45:00,16.2,14.5,29.82,SE,130,0.0,0.0,93,0.00,OVC,FEW,0.00,0.0,WeatherDisplay:10.37,2013-03-05 01:45:00,
2013-03-04 20:50:00,16.3,14.6,29.82,SE,130,0.0,0.0,93,0.00,OVC,FEW,0.00,0.0,WeatherDisplay:10.37,2013-03-05 01:50:00,
2013-03-04 20:55:00,16.3,14.6,29.82,SE,130,0.0,0.0,93,0.00,OVC,FEW,0.00,0.0,WeatherDisplay:10.37,2013-03-05 01:55:00,
2013-03-04 21:00:00,16.3,14.6,29.83,SSE,166,3.0,3.0,93,0.00,OVC,FEW,0.00,0.0,WeatherDisplay:10.37,2013-03-05 02:00:00,
2013-03-04 21:05:00,16.3,14.6,29.82,SSE,165,1.2,1.2,93,0.00,OVC,FEW,0.00,0.0,WeatherDisplay:10.37,2013-03-05 02:05:00,
2013-03-04 21:10:00,16.3,14.6,29.83,SSE,165,1.0,1.0,93,0.00,OVC,FEW,0.00,0.0,WeatherDisplay:10.37,2013-03-05 02:10:00,
2013-03-04 21:15:00,16.3,14.6,29.83,SSE,165,0.0,0.0,93,0.00,OVC,FEW,0.00,0.0,WeatherDisplay:10.37,2013-03-05 02:15:00,
2013-03-04 21:20:00,16.3,14.6,29.83,SSE,168,2.3,0.0,93,0.00,OVC,FEW,0.00,0.0,WeatherDisplay:10.37,2013-03-05 02:20:00,
2013-03-04 21:25:00,16.4,14.7,29.83,SSE,168,0.0,0.0,93,0.00,OVC,FEW,0.00,0.0,WeatherDisplay:10.37,2013-03-05 02:25:00,
2013-03-04 21:30:00,16.4,14.7,29.83,SSE,168,0.0,0.0,93,0.00,OVC,FEW,0.00,0.0,WeatherDisplay:10.37,2013-03-05 02:30:00,
2013-03-04 21:35:00,16.4,14.7,29.83,SSE,168,0.0,0.0,93,0.00,OVC,FEW,0.00,0.0,WeatherDisplay:10.37,2013-03-05 02:35:00,
2013-03-04 21:41:00,16.4,14.7,29.83,SSE,168,0.0,0.0,93,0.00,OVC,FEW,0.00,0.0,WeatherDisplay:10.37,2013-03-05 02:41:00,
2013-03-04 21:46:00,16.4,14.7,29.84,SSE,168,0.0,0.0,93,0.00,OVC,FEW,0.00,0.0,WeatherDisplay:10.37,2013-03-05 02:46:00,
2013-03-04 21:51:00,16.4,14.7,29.84,SSE,168,0.0,0.0,93,0.00,OVC,FEW,0.00,0.0,WeatherDisplay:10.37,2013-03-05 02:51:00,
2013-03-04 21:56:00,16.4,14.7,29.84,South,169,2.0,2.0,93,0.00,OVC,FEW,0.00,0.0,WeatherDisplay:10.37,2013-03-05 02:56:00,
2013-03-04 22:01:00,16.4,14.7,29.84,South,170,1.0,1.0,93,0.00,OVC,FEW,0.00,0.0,WeatherDisplay:10.37,2013-03-05 03:01:00,
2013-03-04 22:06:00,16.3,14.6,29.84,South,170,0.0,0.0,93,0.00,-SN,FEW,0.00,0.0,WeatherDisplay:10.37,2013-03-05 03:06:00,
2013-03-04 22:11:00,16.3,14.4,29.84,South,169,0.0,0.0,92,0.00,-SN,FEW,0.00,0.0,WeatherDisplay:10.37,2013-03-05 03:11:00,
2013-03-04 22:16:00,16.3,14.4,29.84,South,170,0.0,0.0,92,0.00,-SN,FEW,0.00,0.0,WeatherDisplay:10.37,2013-03-05 03:16:00,
2013-03-04 22:21:00,16.3,14.4,29.84,South,170,0.0,1.0,92,0.00,-SN,FEW,0.00,0.0,WeatherDisplay:10.37,2013-03-05 03:21:00,
2013-03-04 22:26:00,16.3,14.6,29.84,South,169,0.0,0.0,93,0.00,-SN,FEW,0.00,0.0,WeatherDisplay:10.37,2013-03-05 03:26:00,
2013-03-04 22:31:00,16.4,14.7,29.84,South,169,0.0,0.0,93,0.00,-SN,FEW,0.00,0.0,WeatherDisplay:10.37,2013-03-05 03:31:00,
2013-03-04 22:36:00,16.4,14.7,29.85,South,169,0.0,0.0,93,0.00,-SN,FEW,0.00,0.0,WeatherDisplay:10.37,2013-03-05 03:36:00,
2013-03-04 22:41:00,16.3,14.6,29.85,South,169,0.0,0.0,93,0.00,-SN,FEW,0.00,0.0,WeatherDisplay:10.37,2013-03-05 03:41:00,
2013-03-04 22:46:00,16.3,14.6,29.85,South,169,0.0,0.0,93,0.00,-SN,FEW,0.00,0.0,WeatherDisplay:10.37,2013-03-05 03:46:00,
2013-03-04 22:51:00,16.3,14.6,29.85,South,170,0.0,0.0,93,0.00,-SN,FEW,0.00,0.0,WeatherDisplay:10.37,2013-03-05 03:51:00,
2013-03-04 22:56:00,16.4,14.7,29.85,South,169,0.0,0.0,93,0.00,-SN,FEW,0.00,0.0,WeatherDisplay:10.37,2013-03-05 03:56:00,
2013-03-04 23:01:00,16.4,14.7,29.85,South,169,0.0,0.0,93,0.00,-SN,FEW,0.00,0.0,WeatherDisplay:10.37,2013-03-05 04:01:00,
2013-03-04 23:06:00,16.5,14.8,29.85,South,169,0.0,1.0,93,0.00,OVC,FEW,0.00,0.0,WeatherDisplay:10.37,2013-03-05 04:06:00,
2013-03-04 23:11:00,16.5,14.8,29.86,South,169,0.0,0.0,93,0.00,OVC,FEW,0.00,0.0,WeatherDisplay:10.37,2013-03-05 04:11:00,
2013-03-04 23:16:00,16.5,14.8,29.86,South,169,0.0,0.0,93,0.00,OVC,FEW,0.00,0.0,WeatherDisplay:10.37,2013-03-05 04:16:00,
2013-03-04 23:21:00,16.5,14.8,29.86,South,170,0.0,0.0,93,0.00,OVC,FEW,0.00,0.0,WeatherDisplay:10.37,2013-03-05 04:21:00,
2013-03-04 23:26:00,16.5,14.8,29.86,South,169,0.0,0.0,93,0.00,OVC,FEW,0.00,0.0,WeatherDisplay:10.37,2013-03-05 04:26:00,
2013-03-04 23:31:00,16.5,14.8,29.87,South,169,0.0,0.0,93,0.00,OVC,FEW,0.00,0.0,WeatherDisplay:10.37,2013-03-05 04:31:00,
2013-03-04 23:36:00,16.5,14.8,29.87,South,169,0.0,0.0,93,0.00,OVC,FEW,0.00,0.0,WeatherDisplay:10.37,2013-03-05 04:36:00,
2013-03-04 23:41:00,16.5,14.8,29.87,South,170,0.0,0.0,93,0.00,OVC,FEW,0.00,0.0,WeatherDisplay:10.37,2013-03-05 04:41:00,
2013-03-04 23:46:00,16.5,14.8,29.87,South,169,0.0,0.0,93,0.00,OVC,FEW,0.00,0.0,WeatherDisplay:10.37,2013-03-05 04:46:00,
2013-03-04 23:51:00,16.6,14.9,29.87,South,169,0.0,0.0,93,0.00,OVC,FEW,0.00,0.0,WeatherDisplay:10.37,2013-03-05 04:51:00,
2013-03-04 23:56:00,16.7,15.0,29.87,South,169,0.0,0.0,93,0.00,OVC,FEW,0.00,0.0,WeatherDisplay:10.37,2013-03-05 04:56:00,